OBJECT_NAME,OBJECT_ID,EPOCH,MEAN_MOTION,ECCENTRICITY,INCLINATION,RA_OF_ASC_NODE,ARG_OF_PERICENTER,MEAN_ANOMALY,EPHEMERIS_TYPE,CLASSIFICATION_TYPE,NORAD_CAT_ID,ELEMENT_SET_NO,REV_AT_EPOCH,BSTAR,MEAN_MOTION_DOT,MEAN_MOTION_DDOT SCD 1,1993-009B,2026-09-11T17:12:39.243168,14.46148025,.00418605,24.9708,33.2915,334.1878,162.2185,0,U,22490,999,77365,.32985648E-4,.306E-5,0 TECHSAT 1B (GO-32),1998-043D,2026-09-11T22:54:30.388032,14.24442378,.0001168,99.0149,249.9331,19.5424,340.5799,0,U,25397,999,46368,.29896E-4,.22E-6,0 SCD 2,1998-060A,2026-09-12T05:29:20.078304,14.45551616,.0016562,24.9947,255.3664,323.8536,128.4949,0,U,25504,999,47293,.41905E-4,.332E-5,0 DLR-TUBSAT,1999-029B,2026-09-12T05:34:48.565056,14.52444379,.0015379,98.6766,253.6305,85.9770,274.3182,0,U,25757,999,44588,.19198E-4,.3E-6,0 TERRA,1999-068A,2026-09-12T04:42:12.379968,14.61158656,.0001557,97.9374,301.2580,353.5066,78.9055,0,U,25994,999,42231,.55701E-4,.23E-5,0 MAROC-TUBSAT,2001-056D,2026-09-12T01:09:14.568192,13.70265535,.0019056,99.8135,73.5748,281.1575,191.0821,0,U,27004,999,23808,.11862E-4,-.36E-6,0 AQUA,2002-022A,2026-09-12T05:39:22.159296,14.62198310,.0001638,98.4385,226.3026,70.0506,346.6067,0,U,27424,999,29599,.10895E-3,.499E-5,0 SHIYAN-1 (SY-1),2004-012A,2026-09-12T05:18:31.151232,15.35807819,.0006432,97.8647,339.0561,76.5282,283.6677,0,U,28220,999,22444,.29677E-3,.10258E-3,0 AURA,2004-026A,2026-09-12T03:31:20.611776,14.61437158,.0001551,98.3508,212.3626,70.5401,289.5966,0,U,28376,999,17891,.11249E-3,.509E-5,0 IRS-P5 (CARTOSAT-1),2005-017A,2026-09-12T01:05:05.807040,14.91234082,.0002516,97.5294,274.1725,106.3701,253.7795,0,U,28649,999,15676,.81331E-4,.756E-5,0 SINAH 1,2005-043D,2026-09-12T04:26:37.932000,14.64207555,.0014523,98.2983,30.0785,9.1560,350.9904,0,U,28893,999,11325,.43463E-4,.179E-5,0 RESURS-DK 1,2006-021A,2026-09-12T00:26:53.437056,15.13503876,.0005502,69.9301,114.7291,216.5050,143.5742,0,U,29228,999,11571,.91188E-4,.1528E-4,0 ARIRANG-2 (KOMPSAT-2),2006-031A,2026-09-12T04:47:17.449728,14.64703270,.0014861,97.8330,75.4600,152.3087,319.6163,0,U,29268,999,7421,.47386E-4,.208E-5,0 LAPAN-TUBSAT,2007-001A,2026-09-12T04:26:53.894400,14.86026959,.001065,98.1396,256.4005,263.0868,96.9135,0,U,29709,999,6407,.74169E-4,.591E-5,0 HAIYANG-1B,2007-010A,2026-09-11T21:57:41.567616,14.31045070,.001256,98.3601,233.4371,308.3562,51.6493,0,U,31113,999,1304,.34331E-4,.48E-6,0 COSMO-SKYMED 1,2007-023A,2026-09-12T03:31:08.380992,14.97431913,.0001547,97.8832,87.7566,93.8770,266.2628,0,U,31598,999,4280,.17051E-3,.1924E-4,0 TERRASAR-X,2007-026A,2026-09-11T20:59:09.621024,15.19150397,.0001869,97.4466,261.3535,82.4667,277.6779,0,U,31698,999,6638,.14296E-4,.233E-5,0 WORLDVIEW-1 (WV-1),2007-041A,2026-09-12T04:47:04.069824,15.24583376,.0001992,97.3870,13.6990,94.5433,265.6033,0,U,32060,999,5613,.17738E-3,.43E-4,0 YAOGAN-3,2007-055A,2026-09-12T04:10:23.689920,14.91054113,.0001816,97.8114,284.1899,92.5361,267.6065,0,U,32289,999,1883,.16586E-3,.1586E-4,0 COSMO-SKYMED 2,2007-059A,2026-09-12T04:22:17.322816,14.82147750,.0001334,97.8914,77.5395,89.7412,270.3954,0,U,32376,999,1489,.3463E-4,.223E-5,0 RADARSAT-2,2007-061A,2026-09-12T05:19:01.251264,14.29981502,.0001259,98.5813,260.9243,84.3108,275.8218,0,U,32382,999,97839,-.40764E-4,-.149E-5,0 CARTOSAT-2A,2008-021A,2026-09-12T05:40:13.785024,14.79326670,.0011516,97.7559,300.9411,181.3802,178.7380,0,U,32783,999,99167,.10564E-3,.737E-5,0 HUANJING 1A (HJ-1A),2008-041A,2026-09-12T05:02:07.107072,14.84156333,.0017822,97.6771,237.7338,209.0966,150.9257,0,U,33320,999,97131,.52548E-4,.388E-5,0 HUANJING 1B (HJ-1B),2008-041B,2026-09-12T05:15:35.969184,14.83457709,.0034577,97.6602,240.6467,257.7728,101.9613,0,U,33321,999,97131,.41864E-4,.295E-5,0 GEOEYE 1,2008-042A,2026-09-12T04:27:43.743744,14.64688237,.0005493,98.1268,328.0699,133.4797,226.6863,0,U,33331,999,96288,.55228E-4,.246E-5,0 THEOS,2008-049A,2026-09-12T04:37:41.904768,14.20143563,.0001326,98.5495,309.6149,89.3391,270.7938,0,U,33396,999,93031,.1406E-3,.258E-5,0 COSMO-SKYMED 3,2008-054A,2026-09-12T04:19:43.982688,15.07413476,.0015021,97.8152,115.1738,337.1766,22.8792,0,U,33412,999,97004,.1022E-3,.1484E-4,0 YAOGAN-4,2008-061A,2026-09-11T18:50:42.846432,14.83337421,.0014968,97.9322,187.6686,143.6866,216.5366,0,U,33446,999,95850,.85423E-4,.647E-5,0 GOSAT (IBUKI),2009-002A,2026-09-12T01:41:46.918752,14.67532343,.0001764,98.0956,5.0911,92.4101,267.7305,0,U,33492,999,94420,.81123E-4,.412E-5,0 DEIMOS-1,2009-041A,2026-09-12T04:56:45.695616,14.75312520,.0000258,97.7514,48.7246,60.3961,299.7275,0,U,35681,999,91971,.70133E-4,.427E-5,0 DUBAISAT-1,2009-041B,2026-09-12T02:43:41.800800,14.75246848,.0011094,98.0173,27.4838,146.0230,214.1692,0,U,35682,999,91791,.10049E-3,.629E-5,0 OCEANSAT-2,2009-051A,2026-09-12T04:44:42.817920,13.99667646,.0015671,98.2416,233.3934,352.6203,7.4731,0,U,35931,999,89150,-.86136E-4,-.164E-5,0 WORLDVIEW-2 (WV-2),2009-055A,2026-09-12T03:29:47.754240,14.37919465,.0003691,98.4726,327.4013,337.8198,22.2829,0,U,35946,999,88814,.36775E-4,.67E-6,0 SMOS,2009-059A,2026-09-11T23:46:28.927776,14.39763983,.0001363,98.4436,81.0639,81.4756,278.6587,0,U,36036,999,88594,.75352E-4,.193E-5,0 YAOGAN-7,2009-069A,2026-09-12T03:33:38.024928,14.78076239,.0025753,97.9923,140.4191,117.1340,243.2501,0,U,36110,999,90247,.46796E-4,.287E-5,0 TANDEM-X,2010-030A,2026-09-10T22:51:15.231168,15.19150528,.0001687,97.4470,260.4434,90.0913,270.0515,0,U,36605,999,89966,.18383E-4,.319E-5,0 CARTOSAT-2B,2010-035A,2026-09-12T03:51:50.176224,14.78620927,.0010031,97.9879,305.1160,271.6402,88.3660,0,U,36795,999,87270,.30846E-4,.173E-5,0 YAOGAN-10,2010-038A,2026-09-12T05:55:05.179872,14.85573202,.000155,97.8953,277.9590,90.1445,335.6187,0,U,36834,999,87013,.17371E-3,.1448E-4,0 COSMO-SKYMED 4,2010-060A,2026-09-12T04:40:32.227680,14.82149547,.0001399,97.8907,77.5537,82.9920,277.1452,0,U,37216,999,85745,.18249E-4,.93E-6,0 RESOURCESAT-2,2011-015A,2026-09-12T03:39:33.483168,14.21609136,.0011331,98.7566,321.9583,12.7571,347.3891,0,U,37387,999,79853,.43802E-4,.52E-6,0 HAIYANG-2A,2011-043A,2026-09-12T04:52:46.290720,13.71464032,.000355,99.3443,255.7466,128.2305,231.9162,0,U,37781,999,75859,-.47474E-4,-.86E-6,0 RASAT,2011-044D,2026-09-12T05:03:53.875008,14.68234629,.0019151,98.0568,345.2749,277.2658,167.0748,0,U,37791,999,80595,.59043E-4,.292E-5,0 SRMSAT,2011-058D,2026-09-12T04:07:01.092288,14.11591835,.0011978,19.9712,252.9645,81.3525,354.9000,0,U,37841,999,77012,.52917E-4,.362E-5,0 PLEIADES 1A,2011-076F,2026-09-12T04:26:00.289248,14.58571374,.0001157,98.1922,329.0896,101.7900,338.7103,0,U,38012,999,78467,.31348E-4,.1E-5,0 ZIYUAN 1-02C (ZY 1-02C),2011-079A,2026-09-12T04:18:26.769600,14.38271675,.0007433,98.4004,320.6381,54.0754,23.4470,0,U,38038,999,77171,.91086E-4,.234E-5,0 ARIRANG-3 (KOMPSAT-3),2012-025B,2026-09-12T03:25:39.661824,14.62269518,.0004913,98.1265,211.1432,187.8308,172.2818,0,U,38338,999,76405,.5978E-4,.255E-5,0 EXACTVIEW-1 (ADS-1B),2012-039C,2026-09-11T22:57:13.644288,14.25005152,.0009827,98.9868,14.3447,282.6501,77.3579,0,U,38709,999,73506,.42182E-4,.52E-6,0 SPOT 6,2012-047A,2026-09-12T04:26:34.671264,14.58561928,.000164,98.2051,321.4398,88.6947,271.4440,0,U,38755,999,74573,.44623E-4,.162E-5,0 PLEIADES 1B,2012-068A,2026-09-12T04:53:28.960224,14.58564479,.0001251,98.1893,329.0259,99.8292,260.3049,0,U,39019,999,73353,.39883E-4,.14E-5,0 GOKTURK 2,2012-073A,2026-09-12T03:36:49.427712,14.75610098,.0002159,97.6785,88.2206,75.4069,284.7381,0,U,39030,999,73733,.14473E-4,.52E-6,0 LANDSAT 8,2013-008A,2026-09-12T04:00:12.746880,14.57098078,.0001329,98.2226,324.2342,94.9581,265.1769,0,U,39084,999,71056,.54566E-4,.2E-5,0 SARAL,2013-009A,2026-09-12T04:29:50.159040,14.32906752,.0002691,98.5565,80.6670,53.4831,306.6601,0,U,39086,999,70806,.2769E-4,.32E-6,0 GAOFEN-1,2013-018A,2026-09-12T05:05:15.105696,14.76534127,.0016923,97.9033,325.4764,350.7320,9.3575,0,U,39150,999,72108,.1277E-4,.38E-6,0 VNREDSAT 1,2013-021B,2026-09-12T04:23:36.439296,14.64742678,.0001289,97.9005,305.2151,78.8878,281.2471,0,U,39160,999,71302,.72834E-4,.343E-5,0 ARIRANG-5 (KOMPSAT-5),2013-042A,2026-09-12T03:49:01.919136,15.04541672,.0003137,97.6209,80.6500,165.3745,194.7572,0,U,39227,999,71693,.13688E-4,.131E-5,0 SKYSAT-A,2013-066C,2026-09-12T01:59:30.471648,15.13388300,.0021599,97.3733,301.6959,18.0720,342.1274,0,U,39418,999,70162,.13455E-3,.2349E-4,0 DUBAISAT-2,2013-066D,2026-09-12T04:27:05.236992,15.10712280,.0012691,97.4644,243.1222,93.0877,267.1805,0,U,39419,999,69952,.23831E-3,.3892E-4,0 GPM-CORE,2014-009C,2026-09-12T03:31:24.282048,15.44884916,.0011221,64.9725,16.7350,259.7167,100.2708,0,U,39574,999,71124,.18145E-3,.8339E-4,0 SENTINEL-1A,2014-016A,2026-09-12T05:38:23.484192,14.59804053,.0001431,98.1586,261.4072,85.4582,274.6782,0,U,39634,999,66271,.99556E-5,.2E-7,0 KAZEOSAT 1,2014-024A,2026-09-12T04:05:25.172736,14.42063116,.0001414,98.3145,325.4192,92.9084,267.2268,0,U,39731,999,65109,.44091E-4,.102E-5,0 ALOS-2,2014-029A,2026-09-12T06:00:24.231744,14.79469386,.0001519,97.9232,351.1675,92.8347,267.3038,0,U,39766,999,66445,.16657E-3,.1193E-4,0 KAZEOSAT 2,2014-033A,2026-09-12T04:33:04.857120,14.85557433,.0009721,97.5364,90.1985,39.8255,320.3673,0,U,40010,999,66187,.61422E-4,.481E-5,0 HODOYOSHI-4,2014-033B,2026-09-12T04:07:36.217344,14.88301519,.0024229,97.5475,75.8262,20.5342,339.6843,0,U,40011,999,66174,.17627E-4,.111E-5,0 DEIMOS-2,2014-033D,2026-09-12T03:04:19.975008,14.93921470,.000224,97.5684,126.5112,67.7054,292.4403,0,U,40013,999,65070,.12791E-3,.1306E-4,0 HODOYOSHI-3,2014-033F,2026-09-12T00:17:58.880256,14.85552610,.0034136,97.6525,54.6221,69.5710,290.9166,0,U,40015,999,66051,.98172E-4,.804E-5,0 SPOT 7,2014-034A,2026-09-12T03:51:25.191072,14.61019435,.0001257,98.0554,315.3762,77.9618,282.1724,0,U,40053,999,64983,.72736E-4,.312E-5,0 SKYSAT-B,2014-037D,2026-09-11T20:44:15.743040,14.88210501,.0005759,98.3937,218.8236,11.0569,349.0772,0,U,40072,999,65885,.11086E-3,.961E-5,0 WORLDVIEW-3 (WV-3),2014-048A,2026-09-12T03:38:35.392992,14.85137041,.000245,97.8498,328.7578,60.9965,299.1496,0,U,40115,999,65481,.63746E-4,.492E-5,0 GAOFEN-2,2014-049A,2026-09-12T04:48:52.512192,14.80995108,.0006434,98.0037,319.2907,321.0648,39.0100,0,U,40118,999,65211,.54327E-4,.367E-5,0 YAOGAN-21,2014-053A,2026-09-12T04:36:35.974656,15.27343259,.000905,97.1402,291.7223,134.3903,225.8079,0,U,40143,999,66823,.16237E-3,.4282E-4,0 YAOGAN-22,2014-063A,2026-09-12T00:51:39.316608,13.15533224,.0006255,100.7859,47.8038,0.3337,359.7777,0,U,40275,999,57123,-.34836E-4,-.6E-6,0 ASNARO,2014-070A,2026-09-12T03:30:35.678592,15.19659375,.0003913,97.3392,328.8891,195.4707,164.6409,0,U,40298,999,65721,.29774E-3,.6285E-4,0 YAOGAN-24,2014-072A,2026-09-12T04:27:10.090944,14.76178524,.0014305,98.1610,33.3091,351.5693,8.5274,0,U,40310,999,63655,.35655E-4,.193E-5,0 CBERS 4,2014-079A,2026-09-12T05:36:41.086368,14.35518479,.0001948,98.3454,309.2974,100.0729,260.0677,0,U,40336,999,61644,.64394E-4,.143E-5,0 YAOGAN-26,2014-088A,2026-09-12T03:36:02.143584,15.50633961,.0006043,97.0687,253.5482,88.4446,271.7499,0,U,40362,999,65116,.29992E-3,.17122E-3,0 SMAP,2015-003A,2026-09-12T04:35:16.329408,14.63368875,.0001443,98.1315,261.0675,91.8137,268.3230,0,U,40376,999,62034,.55691E-4,.241E-5,0 KOMPSAT-3A,2015-014A,2026-09-12T05:41:40.985952,15.58422328,.0048795,97.6925,253.2980,214.9315,144.8735,0,U,40536,999,63535,.2584E-3,.20699E-3,0 SENTINEL-2A,2015-028A,2026-09-12T04:59:03.106176,14.30820097,.000118,98.5631,328.7951,82.9781,277.1536,0,U,40697,999,58617,.62345E-5,-.27E-6,0 GAOFEN-8,2015-030A,2026-09-12T04:35:24.585792,15.48875026,.000686,97.6851,93.9721,235.3321,124.7283,0,U,40701,999,62490,.23625E-3,.12642E-3,0 CARBONITE 1 (CBNT-1),2015-032D,2026-09-12T04:19:46.863264,14.83815917,.0014845,97.6555,69.6500,14.6537,345.5105,0,U,40718,999,60224,.15879E-3,.1267E-4,0 YAOGAN-27,2015-040A,2026-09-12T05:22:55.447968,13.16075989,.0008577,100.1255,237.8627,18.6970,341.4458,0,U,40878,999,52911,.99287E-3,.335E-5,0 GAOFEN-9 01,2015-047A,2026-09-12T05:44:40.811136,14.83016590,.0026429,97.6226,286.9612,211.5846,148.3784,0,U,40894,999,59309,.6788E-4,.504E-5,0 YAOGAN-28,2015-064A,2026-09-12T05:29:14.191008,15.28403651,.0009096,97.3198,31.8413,238.0912,121.9444,0,U,41026,999,60397,.19855E-3,.5422E-4,0 YAOGAN-29,2015-069A,2026-09-12T05:02:10.994208,14.83142060,.0002938,97.9994,283.9648,92.6348,267.5202,0,U,41038,999,58352,-.21194E-6,-.56E-6,0 KENT RIDGE 1,2015-077B,2026-09-11T20:29:03.842880,15.23578370,.00081355,14.9806,341.2276,22.9524,337.1161,0,U,41167,999,59433,.98290273E-4,.3188E-4,0 GAOFEN-4,2015-083A,2026-09-12T00:43:20.111232,1.00271738,.0003695,0.5759,83.3630,139.9172,244.3099,0,U,41194,999,3940,0,-.35E-5,0 JASON-3,2016-002A,2026-09-12T03:33:39.650112,12.87627403,.0008558,66.0419,303.0091,267.0219,92.9820,0,U,41240,999,49844,.13621E-3,-.28E-6,0 SENTINEL-3A,2016-011A,2026-09-12T04:15:42.924096,14.26734404,.0001093,98.6288,321.2991,105.8058,254.3243,0,U,41335,999,55046,.4228E-4,.59E-6,0 ZIYUAN 3-02 (ZY 3-02),2016-033A,2026-09-12T05:01:31.938816,15.21246886,.0012907,97.3773,329.2780,2.1699,357.9591,0,U,41556,999,57121,.16682E-3,.3664E-4,0 CARTOSAT-2C,2016-040A,2026-09-12T04:46:17.213376,15.19250004,.0008823,97.4399,313.9369,181.2779,178.8434,0,U,41599,999,56692,.11841E-3,.2429E-4,0 SKYSAT-C1,2016-040C,2026-09-12T00:04:04.611360,15.37570309,.0004249,96.9514,282.0704,80.3328,279.8397,0,U,41601,999,57120,.18145E-3,.6615E-4,0 LAPAN-A3,2016-040E,2026-09-12T05:55:06.085344,15.33581344,.0011979,97.1561,248.5945,67.4494,292.8015,0,U,41603,999,56815,.82939E-4,.2622E-4,0 GAOFEN-3,2016-049A,2026-09-12T05:20:22.562304,14.42224764,.0000897,98.4044,261.7085,75.7466,284.3823,0,U,41727,999,53119,-.12389E-4,-.84E-6,0 SKYSAT-C4,2016-058B,2026-09-12T01:00:43.874208,15.51094270,.0000496,96.9155,273.3185,44.1443,315.9850,0,U,41771,999,55892,.22406E-3,.12967E-3,0 SKYSAT-C5,2016-058C,2026-09-12T01:09:44.135136,15.34168806,.0001978,97.0397,291.7347,24.1135,336.0201,0,U,41772,999,55706,.15421E-3,.5025E-4,0 SKYSAT-C2,2016-058D,2026-09-12T00:46:09.062112,15.43818551,.0005067,97.0145,273.9556,93.4465,266.7364,0,U,41773,999,55844,.19037E-3,.8544E-4,0 SKYSAT-C3,2016-058E,2026-09-12T01:20:49.827264,15.56070915,.0002076,96.8952,282.7486,75.2432,284.9054,0,U,41774,999,55960,.27757E-3,.19279E-3,0 ALSAT-1B,2016-059C,2026-09-12T05:33:22.777632,14.72330122,.0008301,97.7783,260.2549,314.3130,45.7397,0,U,41785,999,53338,.316E-4,.153E-5,0 PATHFINDER 1,2016-059E,2026-09-11T23:46:48.378144,14.67753091,.0027011,97.8227,250.3772,290.7308,69.1003,0,U,41787,999,53244,.76761E-4,.393E-5,0 SCATSAT 1,2016-059H,2026-09-12T04:19:30.830880,14.79699226,.0053641,98.1110,319.8133,328.8159,30.9872,0,U,41790,999,11445,.95766E-4,.679E-5,0 GOKTURK 1A,2016-073A,2026-09-12T04:29:16.222848,14.62748015,.0001559,98.1549,148.5985,77.8840,282.2536,0,U,41875,999,52154,.59371E-4,.256E-5,0 RESOURCESAT-2A,2016-074A,2026-09-12T04:53:58.189344,14.21611542,.0002351,98.7472,327.9679,158.6834,201.4442,0,U,41877,999,50666,-.92336E-5,-.64E-6,0 CARTOSAT-2D,2017-008A,2026-09-12T03:55:49.435968,15.19309213,.0003607,97.4025,312.8023,310.0854,50.0064,0,U,41948,999,53078,.17444E-3,.3615E-4,0 SENTINEL-2B,2017-013A,2026-09-12T04:48:42.094944,14.30813175,.000122,98.5731,328.7198,87.4582,272.6740,0,U,42063,999,49708,.63336E-5,-.27E-6,0 CARTOSAT-2E,2017-036C,2026-09-12T04:22:13.492704,15.19258445,.0003757,97.4189,313.5075,29.2649,330.8796,0,U,42767,999,51135,.15074E-3,.311E-4,0 FORMOSAT-5,2017-049A,2026-09-12T03:40:51.333888,14.50907132,.001168,98.2192,328.5029,169.8384,190.3049,0,U,42920,999,47928,.30783E-4,.78E-6,0 SENTINEL-5P,2017-064A,2026-09-12T02:39:27.014112,14.19531140,.000119,98.7974,196.6403,76.9576,283.1733,0,U,42969,999,46189,.31034E-4,.21E-6,0 SKYSAT-C11,2017-068A,2026-09-12T03:48:56.965824,15.62501942,.0001054,97.4452,48.1330,66.3428,293.7940,0,U,42987,999,49680,.34443E-3,.30571E-3,0 SKYSAT-C10,2017-068B,2026-09-11T21:48:13.928256,15.36017756,.0001401,97.4623,32.7512,86.3370,273.8034,0,U,42988,999,49566,.21278E-3,.738E-4,0 SKYSAT-C9,2017-068C,2026-09-11T23:18:23.917824,15.43466935,.0008004,97.4544,34.6132,174.2238,185.9104,0,U,42989,999,49613,.24895E-3,.11069E-3,0 SKYSAT-C8,2017-068D,2026-09-11T22:33:18.768384,15.38491765,.0001593,97.4641,32.9218,90.6883,269.4544,0,U,42990,999,49564,.22699E-3,.8537E-4,0 SKYSAT-C7,2017-068E,2026-09-11T22:28:28.339104,15.38438048,.0006418,97.4655,33.9143,145.4966,214.6696,0,U,42991,999,49570,.23095E-3,.8678E-4,0 SKYSAT-C6,2017-068F,2026-09-12T03:45:55.443744,15.34045380,.0001511,97.4704,33.6785,138.2606,221.8752,0,U,42992,999,49565,.2052E-3,.6678E-4,0 CARTOSAT-2F,2018-004A,2026-09-12T03:35:53.424096,15.19262618,.0000986,97.4708,313.8921,27.2028,332.9258,0,U,43111,999,48053,.15823E-3,.3267E-4,0 GAOFEN-1 02,2018-031A,2026-09-12T04:20:07.856736,14.76477566,.0004223,98.0454,317.4253,89.9189,270.2504,0,U,43259,999,45553,.42923E-4,.247E-5,0 GAOFEN-1 03,2018-031B,2026-09-12T05:26:00.818304,14.76443843,.0003694,98.0435,317.3192,131.2924,228.8604,0,U,43260,999,45553,.34148E-5,-.28E-6,0 GAOFEN-1 04,2018-031D,2026-09-12T04:51:03.217248,14.76474053,.0002143,98.0455,317.4974,106.9086,253.2358,0,U,43262,999,45552,.67649E-4,.419E-5,0 SENTINEL-3B,2018-039A,2026-09-12T03:37:02.135424,14.26736730,.0001429,98.6285,321.4222,79.1773,280.9568,0,U,43437,999,43652,.42431E-4,.59E-6,0 GAOFEN-5 01,2018-043A,2026-09-11T22:11:31.247808,14.60655422,.0002273,98.4681,228.3803,137.2207,222.9170,0,U,43461,999,44435,.53778E-4,.213E-5,0 GAOFEN-6,2018-048A,2026-09-12T05:26:04.534368,14.76439110,.0009314,98.0896,318.0443,249.0526,110.9687,0,U,43484,999,44623,.10645E-3,.688E-5,0 GAOFEN-11 01,2018-063A,2026-09-12T05:20:09.406176,15.57642284,.0004076,97.1207,321.9565,33.1322,327.0189,0,U,43585,999,45388,.11742E-3,.8579E-4,0 ICESAT-2,2018-070A,2026-09-12T02:40:08.899104,15.28228512,.0005536,92.0035,314.4592,114.5516,245.6311,0,U,43613,999,44573,.25226E-3,.6939E-4,0 HYSIS,2018-096A,2026-09-12T04:01:52.441248,14.78649791,.000112,97.9771,321.1967,107.6639,252.4695,0,U,43719,999,42027,.13959E-3,.971E-5,0 KAZSTSAT,2018-099AB,2026-09-12T00:30:23.152320,15.00018749,.0013131,97.4213,283.0035,115.7659,244.4922,0,U,43783,999,42432,.88028E-4,.1041E-4,0 SAUDISAT 5A,2018-102A,2026-09-12T04:07:46.758144,15.28804507,.0009515,97.2980,315.0801,175.1077,185.0258,0,U,43831,999,42896,.14351E-3,.3948E-4,0 SAUDISAT 5B,2018-102C,2026-09-12T04:15:32.137920,15.29022365,.0010152,97.3093,318.3126,178.0661,182.0621,0,U,43833,999,42908,.13785E-3,.3815E-4,0 GAOFEN-10R,2019-066A,2026-09-12T04:29:48.729984,14.83160716,.000487,98.0587,209.4394,199.0207,161.0825,0,U,44622,999,37527,.97572E-4,.741E-5,0 CARTOSAT-3,2019-081A,2026-09-12T03:54:40.889664,15.19200538,.0010711,97.4225,315.5876,204.7619,155.3103,0,U,44804,999,37667,.11873E-3,.2434E-4,0 GAOFEN-12 01,2019-082A,2026-09-12T04:46:10.142400,14.80516565,.0002434,97.8147,259.3017,98.5884,261.5605,0,U,44819,999,36696,.36181E-4,.226E-5,0 CSG-1,2019-092A,2026-09-12T03:21:34.545024,14.82155838,.0001421,97.8917,77.5047,86.2662,273.8713,0,U,44873,999,36435,.35053E-4,.227E-5,0 NEMO-HD,2020-061F,2026-09-12T03:42:28.623744,15.46159826,.0002641,97.1830,316.2831,90.3792,269.7760,0,U,46277,999,33541,.16112E-3,.7814E-4,0 SENTINEL-6A,2020-086A,2026-09-12T03:21:49.042944,12.80929289,.0007889,66.0425,314.4511,268.9647,91.0464,0,U,46984,999,27146,.13751E-3,-.29E-6,0 CAS500-1,2021-022A,2026-09-12T03:34:36.724224,15.20181248,.0005029,97.3768,148.5790,4.0819,356.0457,0,U,47932,999,30397,.19752E-3,.421E-4,0 GAOFEN-12 02,2021-026A,2026-09-12T05:15:33.192288,14.80352905,.0003921,97.9994,253.0743,328.7923,31.3055,0,U,48079,999,29463,.36224E-4,.223E-5,0 PLEIADES NEO 3,2021-034A,2026-09-12T04:01:06.522240,14.81672373,.000148,97.8958,328.6836,85.7121,274.4261,0,U,48268,999,29053,.35771E-4,.229E-5,0 PLEIADES NEO 4,2021-073E,2026-09-12T04:49:42.828960,14.81673342,.0001516,97.8957,328.7130,86.5038,273.6349,0,U,49070,999,27425,.33605E-4,.212E-5,0 LANDSAT 9,2021-088A,2026-09-12T04:49:46.684128,14.57109712,.0001484,98.2207,324.2909,100.3913,259.7453,0,U,49260,999,26367,.5639E-4,.209E-5,0 CSG-2,2022-008A,2026-09-12T04:10:08.489568,14.82149580,.0001416,97.8906,77.5297,80.1570,279.9803,0,U,51444,999,24947,-.22977E-4,-.235E-5,0 GAOFEN-12 03,2022-069A,2026-09-12T03:03:48.897792,14.80150474,.0000911,97.8141,140.7515,109.6343,250.4968,0,U,52912,999,22747,.13709E-3,.99E-5,0 SWOT,2022-173A,2026-09-12T03:53:52.941120,14.00171280,.0000184,77.6079,277.9003,198.9789,161.1355,0,U,54754,999,19132,.59091E-4,.85E-6,0 GAOFEN-12 04,2023-123A,2026-09-12T05:26:15.220320,14.79861294,.0002268,97.9066,171.9165,160.5481,199.5818,0,U,57654,999,16550,.89202E-4,.621E-5,0 PARS 1,2024-039Q,2026-09-12T05:00:13.028832,15.47366024,.0010033,97.4915,239.0242,147.7163,212.4703,0,U,59065,999,14209,.17628E-3,.8933E-4,0 RESURS-P 4,2024-061A,2026-09-12T04:18:05.916096,15.32566273,.0001078,97.2821,201.6174,126.7893,233.3448,0,U,59371,999,13708,.73863E-4,.2246E-4,0 LEGION 1,2024-081A,2026-09-12T04:02:11.183136,15.17179326,.0010701,97.4961,332.0982,70.3253,289.9134,0,U,59625,999,13072,.13685E-3,.2653E-4,0 LEGION 2,2024-081B,2026-09-12T04:46:53.433120,15.17163342,.0012243,97.4961,332.2243,40.7326,319.4820,0,U,59626,999,13073,.12169E-3,.2352E-4,0 ALOS-4 (DAICHI-4),2024-123A,2026-09-11T20:43:54.511968,14.79479006,.00014483,97.9220,350.7919,98.8523,261.2852,0,U,60182,999,11869,.13398492E-3,.949E-5,0 LEGION 3,2024-146A,2026-09-12T02:53:59.718048,15.16013378,.0008441,45.0011,284.4592,313.3748,46.6426,0,U,60452,999,11521,.12442E-3,.2168E-4,0 LEGION 4,2024-146B,2026-09-11T17:23:13.216992,15.16029808,.00085867,45.0026,18.4411,79.5608,280.6238,0,U,60453,999,11400,.15060577E-3,.2681E-4,0 SENTINEL-2C,2024-157A,2026-09-12T03:58:22.007136,14.30812868,.0001403,98.5731,328.6890,89.0134,271.1210,0,U,60989,999,10542,.42712E-4,.68E-6,0 IONOSFERA-M 1,2024-199A,2026-09-12T02:47:20.302080,14.22767873,.0000289,98.7023,127.3151,146.1396,213.9801,0,U,61735,999,14006,.33404E-4,.31E-6,0 IONOSFERA-M 2,2024-199B,2026-09-12T03:36:26.716608,14.22771058,.0001987,98.7022,127.2587,78.1842,281.9559,0,U,61736,999,14319,.31511E-4,.27E-6,0 PRSC-EO1,2025-012A,2026-09-12T05:21:51.658848,15.17591890,.0004433,97.4157,325.9429,346.3314,13.7799,0,U,62725,999,9139,.2468E-3,.4894E-4,0 BIOMASS,2025-090A,2026-09-11T23:18:30.453120,14.66985692,.0001237,98.0764,81.0388,89.5948,270.5398,0,U,63772,999,7341,.12728E-3,.665E-5,0 GOSAT-GW (IBUKI GW),2025-141A,2026-09-12T04:33:10.543104,14.67552268,.0001412,98.0597,191.0988,86.8847,273.2519,0,U,64694,999,6460,.61609E-4,.302E-5,0 IONOSFERA-M 3,2025-155A,2026-09-12T04:12:43.753824,14.21498880,.0001318,98.6132,214.9282,20.5939,339.5292,0,U,64876,999,5876,.28223E-4,.19E-6,0 IONOSFERA-M 4,2025-155B,2026-09-12T05:02:41.006976,14.21501485,.0000934,98.6125,214.8787,47.7831,312.3426,0,U,64877,999,5876,.29449E-4,.21E-6,0 MICROCARB,2025-156A,2026-09-12T04:15:24.975360,14.72844623,.0017422,98.0106,331.0325,350.9364,9.1527,0,U,64899,999,6077,.60329E-4,.336E-5,0 CO3D 3,2025-156B,2026-09-12T03:20:55.680576,15.20201710,.000101,97.4344,332.5828,117.8775,242.2563,0,U,64900,999,6274,.13835E-3,.2929E-4,0 CO3D 4,2025-156C,2026-09-12T03:21:09.055296,15.20201230,.0001771,97.4344,332.5828,43.1038,317.0335,0,U,64901,999,6274,.14439E-3,.3059E-4,0 CO3D 2,2025-156D,2026-09-12T04:07:55.047360,15.20203528,.0001465,97.4343,332.5136,103.0081,257.1318,0,U,64902,999,6274,.65803E-4,.1357E-4,0 CO3D 1,2025-156E,2026-09-12T04:08:08.157696,15.20204607,.0001269,97.4346,332.5139,98.7126,261.4253,0,U,64903,999,6274,.12583E-3,.2657E-4,0 PRSC-S1,2025-164A,2026-09-12T03:53:39.875712,15.07040792,.0007792,41.1299,157.7402,233.1528,126.8572,0,U,65055,999,6155,.23763E-3,.3449E-4,0 SENTINEL-6B,2025-264A,2026-09-11T12:22:53.094720,12.80929062,.0007857,66.0427,315.8737,267.7960,92.2156,0,U,66514,999,3822,.13376273E-3,-.3E-6,0 CAS500-3,2025-274F,2026-09-11T19:23:43.124064,14.88318001,.0003395,97.7424,180.8748,327.8778,32.2232,0,U,66655,999,4303,.10015E-3,.873E-5,0 CSG-3,2026-001A,2026-09-11T17:56:30.448032,14.82152593,.0001373,97.8915,77.1166,87.1271,273.0099,0,U,67304,999,3728,.30830245E-4,.193E-5,0 PRSC-E03,2026-092A,2026-09-12T04:43:03.198720,15.07040493,.0004286,38.0016,296.4494,338.0560,22.0018,0,U,68835,999,2108,.11528E-3,.1651E-4,0 CAS500-2,2026-100AK,2026-09-11T16:41:33.836064,15.20219217,.00112336,97.3762,150.7847,75.8592,284.3891,0,U,69013,999,1995,.18968714E-3,.405E-4,0